Mobile, AL

10:47 PM CDT on May 29, 2017 (GMT -0500)
Mobile Regional

Weather History for KMOB - May, 2013

Change the Weather History Date:

Saturday, May 4, 2013

  Actual Average Record
Temperature  
Mean Temperature 57 °F 71 °F  
Max Temperature 70 °F 82 °F 94 °F (1952)
Min Temperature 43 °F 60 °F 43 °F (2013)
Degree Days  
Heating Degree Days 8    
Cooling Degree Days 0 6  
Month to date cooling degree days 6 24  
Year to date cooling degree days 143 183  
Growing Degree Days 6 (Base 50)    
Moisture  
Dew Point 39 °F    
Average Humidity 58    
Maximum Humidity 89    
Minimum Humidity 27    
Precipitation  
Precipitation 0.00 in 0.16 in 1.48 in (1912)
Month to date precipitation 7.01 0.61  
Year to date precipitation 27.47 22.31  
Sea Level Pressure  
Sea Level Pressure 29.94 in    
Wind  
Wind Speed 9 mph (NNW)    
Max Wind Speed 21 mph    
Max Gust Speed 28 mph    
Visibility 10 miles    
Events      
T = Trace of Precipitation, MM = Missing Value Source: NWS Daily Summary

Daily Weather History Graph

Daily Weather History Graph

Search for Another Location

Airport or City:

Trip Planner

Search our weather history database for the weather conditions in past years. The results will help you decide how hot, cold, wet, or windy it might be!

Date:

Astronomy

May. 04, 2013 Rise Set
Actual Time 6:06 AM CDT 7:33 PM CDT
Civil Twilight 5:40 AM CDT 7:59 PM CDT
Nautical Twilight 5:09 AM CDT 8:30 PM CDT
Astronomical Twilight 4:37 AM CDT 9:02 PM CDT
Moon 2:43 AM CDT (5/4) 2:50 PM CDT (5/4)
Length of Visible Light 14h 18m
Length of Day
13h 27m
Waning Crescent, 27% of the Moon is Illuminated
May 4
Waning Crescent
May 9
New
May 17
First Quarter
May 24
Full
May 31
Last Quarter

Hourly Weather History & Observations

Time (CDT) Temp. Windchill Dew Point Humidity Pressure Visibility Wind Dir Wind Speed Gust Speed Precip Events Conditions
12:31 AM 48.2 °F - 44.6 °F 87% 29.98 in 10.0 mi NNW 13.8 mph 20.7 mph 0.00 in   Overcast
12:56 AM 48.0 °F - 42.1 °F 80% 29.97 in 10.0 mi North 15.0 mph 28.8 mph 0.00 in   Overcast
1:56 AM 46.9 °F - 41.0 °F 80% 29.95 in 10.0 mi NNW 17.3 mph 23.0 mph N/A   Overcast
2:56 AM 46.0 °F 40.6 °F 39.9 °F 79% 29.93 in 10.0 mi North 11.5 mph - N/A   Partly Cloudy
3:56 AM 46.0 °F 40.2 °F 39.9 °F 79% 29.94 in 10.0 mi North 12.7 mph 19.6 mph N/A   Mostly Cloudy
4:56 AM 45.0 °F 39.3 °F 39.0 °F 80% 29.94 in 10.0 mi North 11.5 mph - N/A   Clear
5:56 AM 43.0 °F 38.2 °F 39.0 °F 86% 29.95 in 10.0 mi NNW 8.1 mph - N/A   Scattered Clouds
6:56 AM 44.1 °F 39.5 °F 39.9 °F 85% 29.97 in 10.0 mi NNW 8.1 mph - N/A   Partly Cloudy
7:56 AM 48.9 °F - 39.0 °F 69% 29.98 in 10.0 mi NNW 8.1 mph 19.6 mph N/A   Partly Cloudy
8:56 AM 53.1 °F - 37.9 °F 57% 29.99 in 10.0 mi NNW 11.5 mph 21.9 mph N/A   Clear
9:56 AM 57.0 °F - 37.9 °F 49% 29.98 in 10.0 mi NNW 12.7 mph - N/A   Clear
10:56 AM 62.1 °F - 36.0 °F 38% 29.99 in 10.0 mi North 20.7 mph 26.5 mph N/A   Clear
11:56 AM 63.0 °F - 34.0 °F 34% 29.97 in 10.0 mi NW 12.7 mph 24.2 mph N/A   Clear
12:56 PM 64.9 °F - 35.1 °F 33% 29.95 in 10.0 mi NW 12.7 mph 18.4 mph N/A   Clear
1:56 PM 66.9 °F - 35.1 °F 31% 29.94 in 10.0 mi North 15.0 mph 21.9 mph N/A   Clear
2:56 PM 68.0 °F - 34.0 °F 28% 29.92 in 10.0 mi NNW 17.3 mph 24.2 mph N/A   Clear
3:56 PM 68.0 °F - 33.1 °F 27% 29.91 in 10.0 mi NNW 9.2 mph 20.7 mph N/A   Clear
4:56 PM 68.0 °F - 33.1 °F 27% 29.89 in 10.0 mi NW 11.5 mph 20.7 mph N/A   Clear
5:56 PM 68.0 °F - 35.1 °F 30% 29.89 in 10.0 mi NNW 5.8 mph - N/A   Clear
6:56 PM 64.0 °F - 37.0 °F 37% 29.90 in 10.0 mi NW 4.6 mph - N/A   Clear
7:56 PM 59.0 °F - 41.0 °F 51% 29.91 in 10.0 mi NW 3.5 mph - N/A   Clear
8:56 PM 54.0 °F - 42.1 °F 64% 29.93 in 10.0 mi Calm Calm - N/A   Clear
9:56 PM 53.1 °F - 46.0 °F 77% 29.94 in 10.0 mi Calm Calm - N/A   Clear
10:56 PM 53.1 °F - 45.0 °F 74% 29.93 in 10.0 mi Calm Calm - N/A   Clear
11:56 PM 53.1 °F - 43.0 °F 69% 29.91 in 10.0 mi ESE 3.5 mph - N/A   Clear